Regional Weather Roundup
Issued by NWS Portland, ME

Home | Current Version | Previous Version | Text Only | Print | Product List | Glossary On
Versions: 1 2 3 4 5 6 7 8 9 10 11 12 13 14 15 16 17 18 19 20 21 22 23 24 25 26 27 28 29 30 31 32 33 34 35 36 37 38 39 40 41 42 43 44 45 46 47 48 49 50
000
ASUS41 KGYX 181810
RWRGYX
WEATHER ROUNDUP FOR MAINE AND NEW HAMPSHIRE
NATIONAL WEATHER SERVICE GRAY ME
100 PM EST SAT NOV 18 2017

MEZ002-005-006-010-012-015-018-020-021-024-026-027-029-181900-
MAINE

CITY           SKY/WX    TMP DP  RH WIND       PRES   REMARKS
PORTLAND       CLOUDY    40  26  57 SE10G21   29.83F
6HR MIN TEMP:  22; 6HR MAX TEMP:  40;

SANFORD          N/A     40  16  37 E6        29.82F
WISCASSET      MOSUNNY   42  11  28 VRB3      29.84F
6HR MIN TEMP:  22; 6HR MAX TEMP:  42;

ROCKLAND       CLOUDY    38  19  46 SE8       29.83F
FRYEBURG       CLOUDY    40  16  37 S5        29.80F
6HR MIN TEMP:  15; 6HR MAX TEMP:  40;

LEWISTONAUBURN CLOUDY    39   9  29 S7        29.81F
AUGUSTA        MOSUNNY   39  10  30 SE3       29.81F
6HR MIN TEMP:  24; 6HR MAX TEMP:  40;

WATERVILLE     CLOUDY    38   5  25 CALM      29.77F
BANGOR         CLOUDY    38  15  39 CALM      29.83F
6HR MIN TEMP:  23; 6HR MAX TEMP:  38;

GREENVILLE     NOT AVBL
MILLINOCKET    CLOUDY    34  18  52 VRB3      29.82F
6HR MIN TEMP:  22; 6HR MAX TEMP:  34;

HOULTON        CLOUDY    33  20  58 VRB3      29.78R
6HR MIN TEMP:  18; 6HR MAX TEMP:  33;

PRESQUE ISLE   CLOUDY    29  20  69 W3        29.78F
6HR MIN TEMP:  15; 6HR MAX TEMP:  31;

FRENCHVILLE    CLOUDY    23  18  81 CALM      29.73F
6HR MIN TEMP:  15; 6HR MAX TEMP:  24;

CARIBOU        CLOUDY    28  19  69 CALM      29.76S
6HR MIN TEMP:  19; 6HR MAX TEMP:  29;

$$

NHZ002-005-008-009-011-012-014-181900-
NEW HAMPSHIRE

CITY           SKY/WX    TMP DP  RH WIND       PRES   REMARKS
PORTSMOUTH     CLOUDY    40  19  42 SE8       29.80F
ROCHESTER      CLOUDY    40  15  36 VRB3      29.80F
6HR MIN TEMP:  23; 6HR MAX TEMP:  40;

NASHUA         CLOUDY    42  16  34 VRB5      29.81F
MANCHESTER     CLOUDY    41  13  31 S8        29.78F
6HR MIN TEMP:  24; 6HR MAX TEMP:  42;

CONCORD        CLOUDY    40  14  34 S7        29.79F
6HR MIN TEMP:  20; 6HR MAX TEMP:  40;

LACONIA        CLOUDY    37  20  50 CALM      29.79F
PLYMOUTH       FAIR      35  16  45 E3        29.78F
BERLIN         CLOUDY    34  20  56 N3        29.71F
6HR MIN TEMP:  12; 6HR MAX TEMP:  34;

WHITEFIELD     CLOUDY    33  20  58 CALM      29.70F
6HR MIN TEMP:  11; 6HR MAX TEMP:  33;

JAFFREY        CLOUDY    39  21  48 S9        29.76F
6HR MIN TEMP:  22; 6HR MAX TEMP:  39;

KEENE          CLOUDY    36  23  59 CALM      29.78F
LEBANON        CLOUDY    32  20  61 CALM      29.76F
6HR MIN TEMP:  20; 6HR MAX TEMP:  32;

MT WASHINGTON  NOT AVBL
$$

VTZ005-007-008-181900-
VERMONT

CITY           SKY/WX    TMP DP  RH WIND       PRES   REMARKS
ST JOHNSBURY     N/A     31  18  58 MISG      29.72F
MONTPELIER     CLOUDY    30  15  53 S8        29.73F
BURLINGTON     CLOUDY    38  15  39 S12       29.68F
$$

MAZ007-012-024-CTZ003-RIZ002-NYZ038-NYZ072-181900-
SOUTHERN NEW ENGLAND AND NY

CITY           SKY/WX    TMP DP  RH WIND       PRES   REMARKS
BOSTON         CLOUDY    45  22  40 SW9       29.82F
WORCESTER      CLOUDY    40  21  46 SW13      29.78F
NANTUCKET      CLOUDY    51  42  71 SW13      29.87F
PROVIDENCE     CLOUDY    46  31  55 S8        29.84F
HARTFORD       CLOUDY    37  22  54 CALM      29.81F
ALBANY         CLOUDY    41  22  46 S15       29.70F
NEW YORK CITY  CLOUDY    50  34  54 S14G22    29.77F
$$

ANZ081-ANZ082-ANZ150-NHZ014-MEZ023>029-181900-
COASTAL MARINE OBSERVATIONS

STATION/POSITION TIME  TEMP    WIND        PRES    WAVE
                       AIR SEA DIR/SP/G            HT/PER
                 (UTC) (F)     (DEG/KT/KT) (MB)    (FT/S)
MOUNT DESERT ROC 1800   38     220/  3/  5 1010.6F
MATINICUS ROCK   1700   38      CALM  /  1 1010.9F
ISLE OF SHOALS   1700   38     160/  9/ 10 1010.8F
JEFFREYS LEDGE   1736      52                N/A     1/10
GEORGES BANK BUO 1650   50 53              1013.0    9/ 8
$$

.............KEY..............
   WCI - WIND CHILL
   TC  - TEMPERATURE IN CELSIUS
   VSB - VISIBILITY IN MILES
   HX  - HEAT INDEX
   FAIR- INDICATES FEW OR NO CLOUDS BELOW 12,000 FT, WITH NO
         SIGNIFICANT WEATHER AND/OR OBSTRUCTIONS TO VISIBILITY.






USA.gov is the U.S. government's official web portal to all federal, state and local government web resources and services.